Weather in Glarus

Switzerland     47°02′31″N   9°03′55″E
temp.,
°C
wind,
m/s
gust,
m/s
humid.,
%
clouds,
%
prec.,
mm/h
press.,
hPa
HPBL,
m
23 april, fri
fri2323:00+1ese129991 0.1 102485
02:000se219441 0.1 102417
05:00−3sse32895 0.0 102514
08:00+1sse11864 0.0 102540
11:00+4ene127653 0.0 1024422
14:00+6se116956 0.1 1024707
17:00+5s117250 0.0 1023695
20:00+1sse21792 0.0 102411
24 april, sat
sat2423:00−1s43715 0.0 102718
02:00−1s43705 0.0 102626
05:00−1s43685 0.0 102526
08:00+3s22655 0.0 102429
11:00+7wsw117053 0.0 1022532
14:00+9wsw116432 0.1 1020907
17:00+9nw116347 0.0 10201008
20:00+4wsw118616 0.1 102111
25 april, sun
sun2523:00+2s228320 0.0 102215
02:00+2ssw22825 0.0 102212
05:00+2ssw22836 0.0 102111
08:00+5nnw01818 0.0 102072
11:00+8n217013 0.0 1018888
14:00+10nw225639 0.1 10171543
17:00+10nnw325860 0.1 10161125
20:00+4nne119051 0.1 101711
26 april, mon
mon2623:00+3sse2292100 0.0 101713
02:00+3ssw2287100 0.0 101614
05:00+2ssw0184100 0.0 101510
08:00+5ssw0074100 0.0 101484
11:00+9n2164100 0.0 1012926
14:00+9nnw3269100 0.4 1011850
17:00+9n2268100 0.6 1009848
20:00+5ne1185100 0.6 100942
27 april, tue
tue2723:00+5se2290100 0.1 100845
02:00+4sse3391100 0.1 100647
05:00+3s3491100 0.0 1005137
08:00+5s3377100 0.0 1005455
11:00+7s226791 0.0 1004967
14:00+8sw1267100 0.1 1002913
17:00+6w1278100 0.1 1002629
20:00+4wnw1293100 1.1 1004250